Lakeville, MN

4:07 AM CDT on July 23, 2017 (GMT -0500)
Airlake

Weather History for KLVN - May, 2013

Change the Weather History Date:

Wednesday, May 8, 2013

  Actual Average Record
Temperature  
Mean Temperature 62 °F -  
Max Temperature 75 °F 67 °F 90 °F (1990)
Min Temperature 48 °F 44 °F 28 °F (1955)
Degree Days  
Heating Degree Days 4    
Growing Degree Days 12 (Base 50)    
Moisture  
Dew Point 50 °F    
Average Humidity 71    
Maximum Humidity 94    
Minimum Humidity 34    
Precipitation  
Precipitation 0.01 in - - ()
Sea Level Pressure  
Sea Level Pressure 29.98 in    
Wind  
Wind Speed 2 mph (ESE)    
Max Wind Speed 14 mph    
Max Gust Speed 18 mph    
Visibility 9 miles    
Events Rain , Thunderstorm    
Averages and records for this station are not official NWS values.
T = Trace of Precipitation, MM = Missing Value Source: NWS Daily Summary

Daily Weather History Graph

Daily Weather History Graph

Search for Another Location

Airport or City:

Trip Planner

Search our weather history database for the weather conditions in past years. The results will help you decide how hot, cold, wet, or windy it might be!

Date:

Astronomy

May. 08, 2013 Rise Set
Actual Time 5:53 AM CDT 8:26 PM CDT
Civil Twilight 5:20 AM CDT 8:59 PM CDT
Nautical Twilight 4:38 AM CDT 9:41 PM CDT
Astronomical Twilight 3:51 AM CDT 10:28 PM CDT
Moon 5:04 AM CDT (5/8) 7:23 PM CDT (5/8)
Length of Visible Light 15h 39m
Length of Day
14h 33m
Waning Crescent, 2% of the Moon is Illuminated
May 8
Waning Crescent
May 9
New
May 17
First Quarter
May 24
Full
May 31
Last Quarter

Hourly Weather History & Observations

Time (CDT) Temp. Dew Point Humidity Pressure Visibility Wind Dir Wind Speed Gust Speed Precip Events Conditions
12:02 AM 53.6 °F 48.2 °F 82% 29.98 in 10.0 mi Calm Calm - N/A   Clear
12:21 AM 53.6 °F 48.2 °F 82% 29.98 in 10.0 mi Calm Calm - N/A   Clear
12:41 AM 51.8 °F 48.2 °F 88% 29.98 in 10.0 mi Calm Calm - N/A   Clear
1:02 AM 53.6 °F 48.2 °F 82% 29.98 in 10.0 mi Calm Calm - N/A   Clear
1:21 AM 51.8 °F 48.2 °F 88% 29.98 in 10.0 mi Calm Calm - N/A   Clear
1:42 AM 51.8 °F 48.2 °F 88% 29.98 in 10.0 mi Calm Calm - N/A   Clear
2:01 AM 51.8 °F 48.2 °F 88% 29.98 in 10.0 mi Calm Calm - N/A   Clear
2:21 AM 51.8 °F 50.0 °F 94% 29.98 in 10.0 mi Calm Calm - N/A   Clear
2:42 AM 51.8 °F 48.2 °F 88% 29.98 in 7.0 mi Calm Calm - N/A   Clear
3:01 AM 48.2 °F 46.4 °F 93% 29.98 in 10.0 mi Calm Calm - N/A   Clear
3:22 AM 51.8 °F 48.2 °F 88% 29.98 in 10.0 mi Calm Calm - N/A   Clear
3:41 AM 51.8 °F 48.2 °F 88% 29.97 in 10.0 mi Calm Calm - N/A   Clear
4:01 AM 50.0 °F 46.4 °F 87% 29.97 in 10.0 mi Calm Calm - N/A   Clear
4:21 AM 48.2 °F 46.4 °F 93% 29.97 in 10.0 mi Calm Calm - N/A   Clear
4:41 AM 51.8 °F 48.2 °F 88% 29.97 in 10.0 mi Calm Calm - N/A   Scattered Clouds
5:02 AM 51.8 °F 48.2 °F 88% 29.97 in 10.0 mi Calm Calm - N/A   Scattered Clouds
5:21 AM 51.8 °F 48.2 °F 88% 29.98 in 10.0 mi Calm Calm - N/A   Mostly Cloudy
5:41 AM 51.8 °F 48.2 °F 88% 29.98 in 7.0 mi Calm Calm - N/A   Mostly Cloudy
6:02 AM 50.0 °F 48.2 °F 94% 29.99 in 7.0 mi Calm Calm - N/A   Overcast
6:21 AM 50.0 °F 48.2 °F 94% 29.99 in 7.0 mi Calm Calm - N/A   Overcast
6:41 AM 51.8 °F 48.2 °F 88% 30.00 in 10.0 mi Calm Calm - N/A   Overcast
7:01 AM 51.8 °F 50.0 °F 94% 30.00 in 7.0 mi Calm Calm - N/A   Mostly Cloudy
7:21 AM 53.6 °F 51.8 °F 94% 30.00 in 7.0 mi Calm Calm - N/A   Mostly Cloudy
7:42 AM 55.4 °F 51.8 °F 88% 30.00 in 10.0 mi Calm Calm - N/A   Mostly Cloudy
8:01 AM 57.2 °F 51.8 °F 82% 30.00 in 10.0 mi Calm Calm - N/A   Overcast
8:21 AM 60.8 °F 51.8 °F 72% 30.00 in 10.0 mi East 3.5 mph - N/A   Overcast
8:41 AM 60.8 °F 51.8 °F 72% 30.00 in 10.0 mi East 3.5 mph - N/A   Mostly Cloudy
9:01 AM 64.4 °F 51.8 °F 64% 30.00 in 10.0 mi SE 3.5 mph - N/A   Mostly Cloudy
9:22 AM 66.2 °F 51.8 °F 60% 30.00 in 10.0 mi Calm Calm - N/A   Mostly Cloudy
9:41 AM 68.0 °F 48.2 °F 49% 30.00 in 10.0 mi ESE 4.6 mph - N/A   Scattered Clouds
10:01 AM 69.8 °F 48.2 °F 46% 30.00 in 10.0 mi ESE 3.5 mph - N/A   Clear
10:21 AM 71.6 °F 50.0 °F 46% 30.00 in - SE 5.8 mph - N/A   Unknown
10:54 AM 71.6 °F 50.0 °F 46% 30.00 in 10.0 mi SE 5.8 mph - 0.01 in   Unknown
11:14 AM 71.6 °F 50.0 °F 46% 30.00 in 10.0 mi East 5.8 mph - N/A   Clear
11:33 AM 71.6 °F 50.0 °F 46% 29.99 in 10.0 mi South 5.8 mph - N/A   Scattered Clouds
11:54 AM 73.4 °F 48.2 °F 41% 29.99 in 10.0 mi ESE 6.9 mph - N/A   Clear
12:13 PM 73.4 °F 46.4 °F 38% 29.99 in 10.0 mi SSE 6.9 mph - N/A   Clear
12:34 PM 73.4 °F 46.4 °F 38% 29.98 in 10.0 mi ESE 8.1 mph - N/A   Scattered Clouds
12:54 PM 75.2 °F 46.4 °F 36% 29.98 in 10.0 mi South 5.8 mph - N/A   Mostly Cloudy
1:13 PM 75.2 °F 46.4 °F 36% 29.97 in 10.0 mi SSW 4.6 mph - N/A   Scattered Clouds
1:34 PM 75.2 °F 44.6 °F 34% 29.97 in 10.0 mi South 6.9 mph - N/A   Scattered Clouds
1:54 PM 73.4 °F 44.6 °F 36% 29.96 in 7.0 mi South 5.8 mph - N/A   Mostly Cloudy
2:14 PM 73.4 °F 46.4 °F 38% 29.96 in 10.0 mi SSW 5.8 mph - N/A   Mostly Cloudy
2:34 PM 73.4 °F 46.4 °F 38% 29.96 in 10.0 mi SSW 3.5 mph - N/A   Overcast
2:53 PM 71.6 °F 48.2 °F 43% 29.96 in 10.0 mi Calm Calm - N/A   Overcast
3:14 PM 71.6 °F 48.2 °F 43% 29.96 in 10.0 mi WSW 5.8 mph - N/A   Overcast
3:34 PM 71.6 °F 50.0 °F 46% 29.96 in 10.0 mi WSW 4.6 mph - N/A   Mostly Cloudy
3:53 PM 71.6 °F 48.2 °F 43% 29.95 in 10.0 mi West 4.6 mph - N/A   Mostly Cloudy
4:14 PM 71.6 °F 48.2 °F 43% 29.95 in 10.0 mi WNW 3.5 mph - N/A   Overcast
4:33 PM 71.6 °F 48.2 °F 43% 29.94 in 10.0 mi Calm Calm - N/A   Mostly Cloudy
4:54 PM 73.4 °F 50.0 °F 44% 29.94 in 10.0 mi North 4.6 mph - N/A   Scattered Clouds
5:13 PM 73.4 °F 48.2 °F 41% 29.94 in 10.0 mi North 4.6 mph - N/A   Scattered Clouds
5:34 PM 71.6 °F 48.2 °F 43% 29.93 in 10.0 mi North 6.9 mph - N/A   Scattered Clouds
5:54 PM 66.2 °F 53.6 °F 64% 29.96 in 10.0 mi WSW 13.8 mph - N/A Rain Light Rain
6:13 PM 62.6 °F 51.8 °F 68% 29.96 in 5.0 mi NNW 9.2 mph 18.4 mph N/A Rain , Thunderstorm Light Thunderstorms and Rain
6:34 PM 62.6 °F 53.6 °F 72% 29.96 in 10.0 mi North 6.9 mph - N/A   Overcast
6:54 PM 60.8 °F 55.4 °F 82% 29.97 in 10.0 mi SW 5.8 mph - N/A   Overcast
7:13 PM 60.8 °F 55.4 °F 82% 29.97 in 10.0 mi NW 4.6 mph - N/A   Overcast
7:34 PM 60.8 °F 53.6 °F 77% 29.96 in 10.0 mi North 8.1 mph - N/A   Light Drizzle
7:53 PM 60.8 °F 53.6 °F 77% 29.97 in 10.0 mi North 5.8 mph - N/A   Overcast
8:14 PM 59.0 °F 55.4 °F 88% 29.98 in 10.0 mi ENE 4.6 mph - N/A   Overcast
8:34 PM 59.0 °F 55.4 °F 88% 29.99 in 10.0 mi ENE 8.1 mph - N/A   Overcast
8:53 PM 59.0 °F 55.4 °F 88% 29.99 in 10.0 mi Calm Calm - N/A   Overcast
9:14 PM 59.0 °F 55.4 °F 88% 29.99 in 10.0 mi NNE 3.5 mph - N/A   Overcast
9:34 PM 59.0 °F 55.4 °F 88% 30.00 in 10.0 mi East 3.5 mph - N/A   Overcast
9:53 PM 57.2 °F 55.4 °F 94% 30.01 in 10.0 mi NE 3.5 mph - N/A Rain Light Rain
10:13 PM 57.2 °F 55.4 °F 94% 30.02 in 10.0 mi Calm Calm - N/A Rain Light Rain
10:34 PM 57.2 °F 55.4 °F 94% 30.02 in 7.0 mi South 5.8 mph - N/A   Drizzle
10:54 PM 57.2 °F 55.4 °F 94% 30.01 in 5.0 mi SSW 4.6 mph - N/A Rain Rain
11:13 PM 57.2 °F 55.4 °F 94% 30.01 in 5.0 mi Calm Calm - N/A Rain Light Rain
11:34 PM 57.2 °F 55.4 °F 94% 30.01 in 5.0 mi Calm Calm - N/A Rain Light Rain
11:53 PM 57.2 °F 55.4 °F 94% 29.99 in 7.0 mi North 6.9 mph - N/A Rain Rain